Weather History for Greenville, AL

Change the Weather History Date:

Wednesday, February 13, 2013

  Actual Average Record
Temperature  
Mean Temperature 48 °F -  
Max Temperature 55 °F 59 °F 86 °F (1962)
Min Temperature 39 °F 36 °F 19 °F (1955)
Degree Days  
Heating Degree Days 16    
Moisture  
Dew Point 46 °F    
Average Humidity 87    
Maximum Humidity 100    
Minimum Humidity 76    
Precipitation  
Precipitation 0.08 in - - ()
Sea Level Pressure  
Sea Level Pressure 29.89 in    
Wind  
Wind Speed 6 mph (West)    
Max Wind Speed 16 mph    
Max Gust Speed 28 mph    
Visibility 8 miles    
Events Fog , Rain    
Averages and records for this station are not official NWS values.
T = Trace of Precipitation, MM = Missing Value Source: NWS Daily Summary

Daily Weather History Graph

Daily Weather History Graph

Search for Another Location

Airport:

Trip Planner

Search our weather history database for the weather conditions in past years. The results will help you decide how hot, cold, wet, or windy it might be!

Date:

Astronomy

Feb. 13, 2013 Rise Set
Actual Time 6:30 AM CST 5:31 PM CST
Civil Twilight 6:05 AM CST 5:56 PM CST
Nautical Twilight 5:36 AM CST 6:25 PM CST
Astronomical Twilight 5:07 AM CST 6:53 PM CST
Moon 8:15 AM CST (2/13) 9:14 PM CST (2/13)
Length of Visible Light 11h 51m
Length of Day
11h 01m
Waxing Crescent, 14% of the Moon is Illuminated
Feb 13
Waxing Crescent
Feb 17
First Quarter
Feb 25
Full
Mar 4
Last Quarter
Mar 11
New

Hourly Weather History & Observations

Time (CST) Temp. Windchill Dew Point Humidity Pressure Visibility Wind Dir Wind Speed Gust Speed Precip Events Conditions
12:17 AM 50.0 °F - 50.0 °F 100% 29.78 in 1.5 mi Calm Calm - N/A   Overcast
12:42 AM 51.8 °F - 50.0 °F 94% 29.77 in 0.8 mi Calm Calm - N/A   Mist
12:56 AM 51.1 °F - 50.0 °F 96% 29.77 in 0.5 mi Calm Calm - N/A Fog Fog
1:56 AM 52.0 °F - 51.1 °F 97% 29.76 in 0.5 mi Calm Calm - N/A Fog Fog
2:56 AM 54.0 °F - 53.1 °F 97% 29.75 in 0.5 mi SW 4.6 mph - N/A Fog Fog
3:29 AM 55.4 °F - 55.4 °F 100% 29.77 in 1.2 mi West 6.9 mph - N/A   Overcast
3:39 AM 55.4 °F - 55.4 °F 100% 29.79 in 3.0 mi West 16.1 mph 21.9 mph N/A   Overcast
3:56 AM 55.0 °F - 54.0 °F 96% 29.79 in 10.0 mi West 13.8 mph 25.3 mph N/A   Overcast
4:56 AM 54.0 °F - 52.0 °F 93% 29.81 in 10.0 mi West 9.2 mph - N/A   Overcast
5:26 AM 53.6 °F - 51.8 °F 94% 29.82 in 10.0 mi West 10.4 mph - N/A   Scattered Clouds
5:56 AM 53.1 °F - 50.0 °F 89% 29.83 in 10.0 mi West 8.1 mph - N/A   Clear
6:56 AM 52.0 °F - 50.0 °F 93% 29.83 in 10.0 mi WSW 5.8 mph - N/A   Mostly Cloudy
7:38 AM 51.8 °F - 50.0 °F 94% 29.85 in 10.0 mi SW 5.8 mph - N/A   Mostly Cloudy
7:56 AM 53.1 °F - 50.0 °F 89% 29.89 in 10.0 mi WSW 9.2 mph - N/A   Mostly Cloudy
8:56 AM 54.0 °F - 48.9 °F 83% 29.89 in 10.0 mi West 9.2 mph - N/A   Mostly Cloudy
9:56 AM 53.1 °F - 46.0 °F 77% 29.93 in 10.0 mi WNW 13.8 mph 27.6 mph N/A   Mostly Cloudy
10:56 AM 53.1 °F - 46.0 °F 77% 29.91 in 10.0 mi West 13.8 mph - 0.00 in Rain Light Rain
11:51 AM 50.0 °F - 46.4 °F 87% 29.91 in 10.0 mi WNW 9.2 mph - 0.02 in Rain Light Rain
11:56 AM 50.0 °F - 46.0 °F 86% 29.90 in 10.0 mi WNW 8.1 mph - 0.02 in Rain Light Rain
12:05 PM 48.2 °F - 44.6 °F 87% 29.90 in 8.0 mi WNW 8.1 mph 17.3 mph 0.01 in Rain Rain
12:11 PM 48.2 °F - 44.6 °F 87% 29.91 in 8.0 mi WNW 11.5 mph - 0.02 in Rain Light Rain
12:56 PM 48.0 °F - 45.0 °F 89% 29.91 in 7.0 mi West 9.2 mph - 0.05 in Rain Light Rain
1:06 PM 48.2 °F - 44.6 °F 87% 29.92 in 10.0 mi West 9.2 mph - 0.01 in Rain Light Rain
1:14 PM 46.4 °F 44.3 °F 44.6 °F 93% 29.90 in 10.0 mi West 4.6 mph - 0.01 in Rain Light Rain
1:56 PM 48.0 °F - 45.0 °F 89% 29.90 in 10.0 mi West 6.9 mph - 0.01 in   Overcast
2:04 PM 48.2 °F - 44.6 °F 87% 29.90 in 10.0 mi WNW 6.9 mph - N/A   Overcast
2:26 PM 48.2 °F - 44.6 °F 87% 29.93 in 10.0 mi West 5.8 mph - N/A   Overcast
2:56 PM 48.0 °F - 44.1 °F 86% 29.91 in 10.0 mi WNW 5.8 mph - N/A   Overcast
3:17 PM 48.2 °F - 42.8 °F 82% 29.93 in 10.0 mi WNW 5.8 mph - N/A   Mostly Cloudy
3:42 PM 48.2 °F - 42.8 °F 82% 29.94 in 10.0 mi West 6.9 mph - N/A   Mostly Cloudy
3:56 PM 48.9 °F - 42.1 °F 77% 29.93 in 10.0 mi WNW 4.6 mph - N/A   Mostly Cloudy
4:09 PM 48.2 °F - 42.8 °F 82% 29.93 in 10.0 mi NW 4.6 mph - N/A   Scattered Clouds
4:56 PM 48.0 °F - 41.0 °F 77% 29.94 in 10.0 mi WNW 6.9 mph - N/A   Partly Cloudy
5:56 PM 48.0 °F - 41.0 °F 77% 29.95 in 10.0 mi NW 5.8 mph - N/A   Mostly Cloudy
6:56 PM 46.9 °F - 41.0 °F 80% 29.98 in 10.0 mi NW 4.6 mph - N/A   Partly Cloudy
7:56 PM 46.0 °F 42.5 °F 39.9 °F 79% 29.98 in 10.0 mi NNW 6.9 mph - N/A   Mostly Cloudy
8:56 PM 45.0 °F 40.1 °F 37.9 °F 76% 29.99 in 10.0 mi NNW 9.2 mph - N/A   Clear
9:56 PM 43.0 °F 40.3 °F 37.9 °F 82% 30.01 in 10.0 mi NW 4.6 mph - N/A   Clear
10:56 PM 42.1 °F - 36.0 °F 79% 30.03 in 10.0 mi Calm Calm - N/A   Clear
11:56 PM 39.9 °F - 36.0 °F 86% 30.04 in 10.0 mi Calm Calm - N/A   Clear